Regional Weather Roundup
Issued by NWS

Home | Current Version | Previous Version | Graphics & Text | Print | Product List | Glossary On
Versions: 1 2 3 4 5 6 7 8 9 10 11 12 13 14 15 16 17 18 19 20 21 22 23 24 25 26 27 28 29 30 31 32 33 34 35 36 37 38 39 40 41 42 43 44 45 46 47 48 49 50
000
ASUS45 KTFX 041710
RWRMT
MONTANA REGIONAL WEATHER ROUNDUP
NATIONAL WEATHER SERVICE GREAT FALLS MT
1100 AM MDT SAT JUL 04 2015

NOTE: "FAIR" INDICATES FEW OR NO CLOUDS BELOW 12000 FEET WITH NO
SIGNIFICANT WEATHER AND/OR OBSTRUCTIONS TO VISIBILITY.

MTZ001>007-043-041800-
WEST OF THE DIVIDE

CITY           SKY/WX    TMP DP  RH WIND       PRES   REMARKS
KALISPELL      SUNNY     84  50  30 E3        29.83F
MISSOULA       SUNNY     80  43  26 S8        29.89F
BUTTE          SUNNY     79  39  23 N6        30.05F
MULLAN PASS    SUNNY     72  40  31 N5        30.06S
DEER LODGE       N/A     84  41  21 CALM      30.01F
EUREKA           N/A     82  48  30 CALM      29.83F
HAMILTON         N/A     82  48  30 S6        29.91F
LIBBY            N/A     82  46  28 CALM      29.82F
PLAINS           N/A     81  48  31 CALM      29.84F
RONAN            N/A     88  50  27 CALM      29.91F
$$

MTZ008-052>055-041800-
SOUTHWEST MONTANA

CITY           SKY/WX    TMP DP  RH WIND       PRES   REMARKS
BOZEMAN        SUNNY     82  47  29 CALM      29.97F
DILLON         SUNNY     78  45  30 CALM      30.02F
W YELLOWSTONE  SUNNY     73  45  35 NE3       30.12F
THREE FORKS      N/A     82  51  34 E2        29.95F
TWIN BRIDGES     N/A     77  46  33 S5        30.00F VSB 1
$$

MTZ009-010-012-014-046-048-049-054-041800-
EAST SLOPES AND CENTRAL MONTANA

CITY           SKY/WX    TMP DP  RH WIND       PRES   REMARKS
CUT BANK       SUNNY     70  50  49 N12G20    29.95F
GREAT FALLS    SUNNY     77  52  41 NW17      29.90R
MALMSTROM AFB  SUNNY     77  53  44 NW14G21   29.91R
HELENA         SUNNY     87  45  23 CALM      29.89F
CONRAD           N/A     71  60  68 NW14      29.96F
$$

MTZ011-013-016-021-045-047-050-051-041800-
NORTH CENTRAL MONTANA

CITY           SKY/WX    TMP DP  RH WIND       PRES   REMARKS
HAVRE          SUNNY     83  55  38 NW7       29.80S
LEWISTOWN      SUNNY     89  47  23 NW9       29.89S
CHINOOK          N/A     81  57  44 N10       29.79R
FORT BENTON      N/A     79  55  44 W15       29.86S
$$

MTZ017>020-022>027-061-062-041800-
NORTHEAST MONTANA

CITY           SKY/WX    TMP DP  RH WIND       PRES   REMARKS
GLASGOW        SUNNY     88  54  31 VRB3      29.70F
JORDAN           N/A     91  53  27 SW18G24   29.73F
SIDNEY         SUNNY     84  63  48 SE7       29.73F
WOLF POINT     SUNNY     89  59  36 CALM      29.69F
PLENTYWOOD       N/A     81  66  61 S3        29.74R
POPLAR           N/A     88  64  45 CALM      29.71S
SCOBEY           N/A     83  60  45 S1        29.74S
$$

MTZ028>42-056>058-041800-
SOUTHCENTRAL AND SOUTHEAST MONTANA

CITY           SKY/WX    TMP DP  RH WIND       PRES   REMARKS
BAKER          SUNNY     84  62  47 SW5       29.81F
BILLINGS       MOSUNNY   87  51  28 SW7       29.87S
LIVINGSTON     SUNNY     87  45  23 W12       29.94F
MILES CITY     SUNNY     89  60  37 SE8       29.76F
EKALAKA          N/A     85  54  34 NE3       29.85S
FORSYTH          N/A     91  57  31 SW7       29.76F HX  90
LAUREL           N/A     87  48  25 SW8       29.86F
ROUNDUP          N/A     88  51  27 CALM      29.76F
$$

REGIONAL REPORTS...DAKOTAS

CITY           SKY/WX    TMP DP  RH WIND       PRES   REMARKS
WILLISTON      SUNNY     85  63  47 VRB7      29.73F
MINOT          SUNNY     82  62  50 S15       29.74F HAZE
DICKINSON      SUNNY     82  66  58 S8        29.78F
BEACH          FAIR      84  61  45 SW7       29.79F
CROSBY         FAIR      77  73  88 S7        29.74S
BISMARCK       SUNNY     81  67  62 S13       29.79F
GRAND FORKS    CLOUDY    80  66  62 S10       29.82F HAZE
FARGO          SUNNY     81  69  67 S9        29.85F HAZE
BUFFALO SD       N/A     83  61  47 CALM      29.77F
RAPID CITY     SUNNY     82  68  62 S6        29.84F
$$

REGIONAL REPORTS...WYOMING/IDAHO/WASHINGTON

CITY           SKY/WX    TMP DP  RH WIND       PRES   REMARKS
GILLETTE       SUNNY     86  53  32 CALM      29.92S
SHERIDAN       SUNNY     89  53  29 NE5       29.88F
BUFFALO WY     SUNNY     85  47  26 E7        29.97S
CODY           SUNNY     84  50  30 NE5       29.97F
YELLOWSTONE LA   N/A     65  47  52 E6        30.23F
IDAHO FALLS    SUNNY     77  56  48 SW6       29.99F
SALMON         SUNNY     75  46  35 NW5       29.95F
BOISE          MOSUNNY   85  46  25 W7        29.87S
SPOKANE        MOSUNNY   81  48  31 S3        29.84S
$$

REGIONAL REPORTS...ALBERTA

CITY           SKY/WX    TMP DP  RH WIND       PRES   REMARKS
EDMONTON       SUNNY     66  43  42 N8        29.93S
CALGARY        PTSUNNY   68  46  45 SE5       29.95F
LETHBRIDGE     MOSUNNY   68  52  56 VRB2      29.95F
MEDICINE HAT   MOSUNNY   77  50  38 N10G22    29.88S
WATERTON GATE    N/A     66  50  55 NE3         N/A
ONEFOUR          N/A     77  52  41 NE10G18     N/A
$$

REGIONAL REPORTS...SASKATCHEWAN

CITY           SKY/WX    TMP DP  RH WIND       PRES   REMARKS
SWIFT CURRENT  MOSUNNY   70  54  56 NE20G28   29.84S HAZE
REGINA         PTSUNNY   73  63  68 N7        29.76S
SASKATOON      PTSUNNY   73  54  49 NW12G22   29.81R SMOKE
CYPRESS HILLS    N/A     66  45  45 NE14G25     N/A
ASSINIBOIA       N/A     68  46  45 NW9         N/A
$$



USA.gov is the U.S. government's official web portal to all federal, state and local government web resources and services.